User: anonymous   Login
Location: Pulvis Stellarum Observatory
(41.6962°N, 71.4263°W)
Time: 14:51:17
(UTC-05:00)
Language:

Cosmos 1758 - Orbit

View from above orbital plane
View from above orbital plane
View from above satellite
View from above satellite

Ground track
Ground track

The orbit data is extracted from the following two-line orbital elements,

1 16791U 86046A   16336.84710249 +.00000919 +00000-0 +63879-4 0  9998
2 16791 082.4721 224.3091 0017867 043.5208 316.7424 15.04242520655730
Epoch (UTC): 01 December 2016 20:19:49
Eccentricity: 0.0017867
inclination: 82.4721°
perigee height: 541 km
apogee height: 566 km
right ascension of ascending node: 224.3091°
argument of perigee: 43.5208°
revolutions per day: 15.04242520
mean anomaly at epoch: 316.7424°
orbit number at epoch: 65573

The dashed part of the orbit path shows where the satellite is in the earth's shadow,  

DLR